Skip Page Navigation
NASA JPL Caltech
NASA Logo - Jet Propulsion Laboratory + View the NASA Portal
+ Center for Near-Earth Object Studies
JPL Home Earth Solar System Stars & Galaxies Technology
JPL Solar System Dynamics
BODIES ORBITS EPHEMERIDES TOOLS PHYSICAL DATA DISCOVERY FAQ SITE MAP
JPL Small-Body Database Browser
Search: [ help ]  
97954 (2000 QY130)
Classification: Main-belt Asteroid          SPK-ID: 2097954
Ephemeris | Orbit Diagram | Orbital Elements | Mission Design | Physical Parameters | Discovery Circumstances ]

[ show orbit diagram ]
Orbital Elements at Epoch 2459000.5 (2020-May-31.0) TDB
Reference: JPL 26 (heliocentric ecliptic J2000)
 Element Value Uncertainty (1-sigma)   Units 
e .1426427345134146 4.9196e-08  
a 2.751094735133354 1.6031e-08 au
q 2.358671059208474 1.2908e-07 au
i 13.06314462072306 3.7188e-06 deg
node 145.3857271860578 1.9955e-05 deg
peri 225.2457139198613 2.4459e-05 deg
M 79.91788060900686 1.3358e-05 deg
tp 2458630.502999953645
(2019-May-27.00299995)
6.1736e-05 TDB
period 1666.69735235291
4.56
1.4569e-05
3.989e-08
d
yr
n .2159960232082812 1.888e-09 deg/d
Q 3.143518411058234 1.8318e-08 au
  Orbit Determination Parameters
   # obs. used (total)      718  
   data-arc span      7619 days (20.86 yr)  
   first obs. used      1999-03-21  
   last obs. used      2020-01-29  
   planetary ephem.      DE431  
   SB-pert. ephem.      SB431-N16  
   condition code      0  
   norm. resid. RMS      .55971  
   source      ORB  
   producer      Otto Matic  
   solution date      2020-Feb-24 00:26:38  

Additional Information
 Earth MOID = 1.37496 au 
 Jupiter MOID = 2.34681 au 
 T_jup = 3.294 
[ hide covariance matrix ]
Orbital Elements at Epoch 2457140.5 (2015-Apr-28.0) TDB
Reference: JPL 26 (heliocentric ecliptic J2000)
 Element Value Uncertainty (1-sigma)   Units 
e .1427257430037012 4.9482e-08  
q 2.357213289988624 1.2985e-07 au
tp 2456957.203140738365
(2014-Oct-26.70314074)
6.285e-05 TDB
node 145.5483532147739 1.9894e-05 deg
peri 223.7913044208326 2.442e-05 deg
i 13.0847259322341 3.7252e-06 deg
  Orbit Determination Parameters
   # obs. used (total)      718  
   data-arc span      7619 days (20.86 yr)  
   first obs. used      1999-03-21  
   last obs. used      2020-01-29  
   planetary ephem.      DE431  
   SB-pert. ephem.      SB431-N16  
   condition code      0  
   norm. resid. RMS      .55971  
   source      ORB  
   producer      Otto Matic  
   solution date      2020-Feb-24 00:26:38  

Additional Information
 Jupiter MOID = 2.34681 au 
 T_jup = 3.294 
Orbit Covariance (6×6)
  e q tp node peri i
e 2.448463281957585E-15 -6.3989957976392E-15 1.735394723526504E-13 3.254079528560769E-15 -3.304637987254642E-14 -6.17980069221575E-15
q -6.3989957976392E-15 1.68614125304836E-14 -6.378597654045845E-13 -9.020330770218938E-15 5.03350000671221E-14 1.649394076191592E-14
tp 1.735394723526504E-13 -6.378597654045845E-13 3.950117888615411E-9 -1.128479764205162E-11 9.12255138722391E-10 -6.10590697009175E-12
node 3.254079528560769E-15 -9.020330770218938E-15 -1.128479764205162E-11 3.957753859141225E-10 -3.879295877395241E-10 1.06857604262397E-11
peri -3.304637987254642E-14 5.03350000671221E-14 9.12255138722391E-10 -3.879295877395241E-10 5.963589872794116E-10 -1.166621712546645E-11
i -6.17980069221575E-15 1.649394076191592E-14 -6.10590697009175E-12 1.06857604262397E-11 -1.166621712546645E-11 1.387706887227938E-11

Ephemeris | Orbit Diagram | Orbital Elements | Mission Design | Physical Parameters | Discovery Circumstances ]

Physical Parameter Table
Parameter Symbol Value Units Sigma Reference Notes
absolute magnitude H 15.0   n/a MPO502713  
diameter diameter 6.250 km 1.813 urn:nasa:pds:neowise_diameters_albedos::2.0[mainbelt] (http://adsabs.harvard.edu/abs/2016AJ....152...63N)  
geometric albedo albedo 0.041   0.044 urn:nasa:pds:neowise_diameters_albedos::2.0[mainbelt] (http://adsabs.harvard.edu/abs/2016AJ....152...63N)  

97954 (2000 QY130)          Discovered 2000-Aug-24 by LINEAR at Socorro
Reference: 20050224/Numbers.arcLast Updated: 2005-02-28
Ephemeris | Orbit Diagram | Orbital Elements | Mission Design | Physical Parameters | Discovery Circumstances ]
ABOUT SSD CREDITS/AWARDS PRIVACY/COPYRIGHT GLOSSARY LINKS
FirstGov 2020-Oct-28 09:34 UT
(server date/time)  
NASA Home Page
Site Manager:   Ryan S. Park
Webmaster  Alan B. Chamberlin